• In Sweden
  • List of Countries
  • For 7 days
  • Water Temperature
  • Satellite Maps
  • Weather Map
  • Weather Widgets
  • user-avatar
    Login

    Hourly Weather Northallerton

    Today, 22 November, Wednesday

    Time Temperature Precipitation Wind Pressure Humidity
    00:00 +11°C° 0 mm 8 mps 742 mmHg 86%
    01:00 +11°C° 0 mm 8 mps 742 mmHg 86%
    02:00 +11°C° 0 mm 7 mps 741 mmHg 87%
    03:00 +10°C° 0 mm 7 mps 741 mmHg 87%
    04:00 +10°C° 0.2 mm 6 mps 740 mmHg 87%
    05:00 +10°C° 0.2 mm 5 mps 740 mmHg 88%
    06:00 +11°C° 0.2 mm 4 mps 739 mmHg 89%
    07:00 +12°C° 0.2 mm 5 mps 739 mmHg 87%
    08:00 +11°C° 0.2 mm 7 mps 738 mmHg 86%
    09:00 +12°C° 0.2 mm 8 mps 737 mmHg 84%
    10:00 +13°C° 0.5 mm 9 mps 736 mmHg 82%
    11:00 +13°C° 0.5 mm 10 mps 735 mmHg 80%
    12:00 +14°C° 0.5 mm 12 mps 735 mmHg 78%
    13:00 +14°C° 0.4 mm 12 mps 734 mmHg 78%
    14:00 +14°C° 0.4 mm 11 mps 733 mmHg 78%
    15:00 +14°C° 0.4 mm 11 mps 733 mmHg 79%
    16:00 +14°C° 0.7 mm 11 mps 732 mmHg 79%
    17:00 +13°C° 0.7 mm 12 mps 731 mmHg 79%
    18:00 +13°C° 0.7 mm 12 mps 731 mmHg 79%
    19:00 +13°C° 0.6 mm 11 mps 730 mmHg 81%
    20:00 +13°C° 0.6 mm 10 mps 730 mmHg 82%
    21:00 +13°C° 0.6 mm 9 mps 729 mmHg 84%
    22:00 +13°C° 0.5 mm 9 mps 729 mmHg 84%
    23:00 +12°C° 0.5 mm 9 mps 729 mmHg 83%

    Tomorrow, 23 November, Thursday

    Time Temperature Precipitation Wind Pressure Humidity
    00:00 +12°C° 0.5 mm 8 mps 729 mmHg 82%
    01:00 +11°C° 0.4 mm 8 mps 729 mmHg 83%
    02:00 +11°C° 0.4 mm 7 mps 729 mmHg 85%
    03:00 +10°C° 0.4 mm 6 mps 729 mmHg 86%
    04:00 +9°C° 0.2 mm 7 mps 730 mmHg 82%
    05:00 +7°C° 0.2 mm 8 mps 730 mmHg 79%
    06:00 +6°C° 0.2 mm 10 mps 731 mmHg 75%
    07:00 +6°C° 0 mm 10 mps 732 mmHg 74%
    08:00 +5°C° 0 mm 10 mps 733 mmHg 72%
    09:00 +4°C° 0 mm 11 mps 734 mmHg 70%
    10:00 +6°C° 0.1 mm 11 mps 735 mmHg 69%
    11:00 +5°C° 0.1 mm 12 mps 736 mmHg 68%
    12:00 +5°C° 0.1 mm 12 mps 737 mmHg 67%
    13:00 +6°C° 0 mm 11 mps 739 mmHg 67%
    14:00 +4°C° 0 mm 11 mps 740 mmHg 66%
    15:00 +5°C° 0 mm 10 mps 742 mmHg 65%
    16:00 +5°C° 0 mm 8 mps 743 mmHg 67%
    17:00 +4°C° 0 mm 7 mps 744 mmHg 68%
    18:00 +4°C° 0 mm 6 mps 745 mmHg 70%
    19:00 +5°C° 0 mm 5 mps 746 mmHg 70%
    20:00 +3°C° 0 mm 5 mps 746 mmHg 70%
    21:00 +3°C° 0 mm 5 mps 747 mmHg 70%
    22:00 +4°C° 0 mm 4 mps 747 mmHg 71%
    23:00 +4°C° 0 mm 3 mps 747 mmHg 72%

    Day after tomorrow, 24 November, Friday

    Time Temperature Precipitation Wind Pressure Humidity
    00:00 +4°C° 0 mm 3 mps 747 mmHg 73%
    01:00 +3°C° 0 mm 3 mps 748 mmHg 74%
    02:00 +3°C° 0 mm 3 mps 748 mmHg 76%
    03:00 +4°C° 0 mm 2 mps 748 mmHg 77%
    04:00 +4°C° 0 mm 2 mps 749 mmHg 78%
    05:00 +3°C° 0 mm 2 mps 749 mmHg 78%
    06:00 +3°C° 0 mm 2 mps 749 mmHg 79%
    07:00 +3°C° 0 mm 2 mps 750 mmHg 79%
    08:00 +3°C° 0 mm 2 mps 750 mmHg 78%
    09:00 +3°C° 0 mm 2 mps 750 mmHg 78%
    10:00 +3°C° 0 mm 3 mps 751 mmHg 75%
    11:00 +4°C° 0 mm 3 mps 751 mmHg 71%
    12:00 +5°C° 0 mm 4 mps 751 mmHg 67%
    13:00 +5°C° 0 mm 3 mps 751 mmHg 69%
    14:00 +4°C° 0 mm 3 mps 751 mmHg 70%
    15:00 +4°C° 0 mm 3 mps 751 mmHg 72%
    16:00 +3°C° 0 mm 3 mps 752 mmHg 74%
    17:00 +3°C° 0 mm 3 mps 752 mmHg 76%
    18:00 +2°C° 0 mm 3 mps 752 mmHg 79%
    19:00 +2°C° 0 mm 3 mps 752 mmHg 78%
    20:00 +1°C° 0 mm 3 mps 752 mmHg 78%
    21:00 +1°C° 0 mm 3 mps 752 mmHg 77%
    22:00 +1°C° 0 mm 3 mps 752 mmHg 77%
    23:00 +1°C° 0 mm 3 mps 752 mmHg 76%

    25 November, Saturday

    Time Temperature Precipitation Wind Pressure Humidity
    00:00 +1°C° 0 mm 3 mps 752 mmHg 75%
    01:00 +1°C° 0 mm 3 mps 752 mmHg 75%
    02:00 +1°C° 0 mm 3 mps 751 mmHg 76%
    03:00 0°C° 0 mm 4 mps 751 mmHg 76%
    04:00 0°C° 0 mm 4 mps 751 mmHg 76%
    05:00 0°C° 0 mm 4 mps 751 mmHg 76%
    06:00 0°C° 0 mm 4 mps 751 mmHg 77%
    07:00 0°C° 0 mm 4 mps 751 mmHg 76%
    08:00 0°C° 0 mm 4 mps 751 mmHg 75%
    09:00 0°C° 0 mm 4 mps 751 mmHg 74%
    10:00 +1°C° 0 mm 5 mps 751 mmHg 69%
    11:00 +2°C° 0 mm 5 mps 752 mmHg 64%
    12:00 +3°C° 0 mm 6 mps 752 mmHg 59%
    13:00 +3°C° 0 mm 6 mps 752 mmHg 62%
    14:00 +3°C° 0 mm 6 mps 752 mmHg 64%
    15:00 +2°C° 0 mm 6 mps 753 mmHg 67%
    16:00 +2°C° 0 mm 7 mps 753 mmHg 69%
    17:00 +2°C° 0 mm 7 mps 753 mmHg 70%
    18:00 +1°C° 0 mm 8 mps 753 mmHg 72%
    19:00 +1°C° 0.2 mm 8 mps 753 mmHg 73%
    20:00 +2°C° 0.2 mm 8 mps 753 mmHg 75%
    21:00 +2°C° 0.2 mm 8 mps 753 mmHg 76%
    22:00 +2°C° 0 mm 8 mps 754 mmHg 77%
    23:00 +3°C° 0 mm 7 mps 754 mmHg 77%

    26 November, Sunday

    Time Temperature Precipitation Wind Pressure Humidity
    00:00 +3°C° 0 mm 7 mps 754 mmHg 77%
    01:00 +2°C° 0 mm 7 mps 755 mmHg 76%
    02:00 +2°C° 0 mm 7 mps 755 mmHg 76%
    03:00 +2°C° 0 mm 7 mps 756 mmHg 75%
    04:00 +1°C° 0 mm 6 mps 756 mmHg 75%
    05:00 +1°C° 0 mm 6 mps 756 mmHg 75%
    06:00 +1°C° 0 mm 6 mps 757 mmHg 75%
    07:00 +1°C° 0 mm 6 mps 757 mmHg 73%
    08:00 +1°C° 0 mm 6 mps 757 mmHg 72%
    09:00 +1°C° 0 mm 6 mps 758 mmHg 70%
    10:00 +2°C° 0 mm 6 mps 758 mmHg 67%
    11:00 +2°C° 0 mm 7 mps 758 mmHg 63%
    12:00 +2°C° 0 mm 8 mps 758 mmHg 60%
    13:00 +3°C° 0 mm 7 mps 759 mmHg 63%
    14:00 +3°C° 0 mm 6 mps 759 mmHg 65%
    15:00 +2°C° 0 mm 6 mps 759 mmHg 67%
    16:00 +2°C° 0 mm 6 mps 759 mmHg 69%
    17:00 +1°C° 0 mm 6 mps 759 mmHg 71%
    18:00 +1°C° 0 mm 5 mps 760 mmHg 73%
    19:00 +1°C° 0 mm 5 mps 760 mmHg 73%
    20:00 0°C° 0 mm 5 mps 760 mmHg 73%
    21:00 0°C° 0 mm 5 mps 760 mmHg 73%
    22:00 0°C° 0 mm 4 mps 760 mmHg 75%
    23:00 0°C° 0 mm 4 mps 760 mmHg 77%

    27 November, Monday

    Time Temperature Precipitation Wind Pressure Humidity
    00:00 +1°C° 0 mm 3 mps 760 mmHg 78%
    01:00 +1°C° 0 mm 3 mps 759 mmHg 80%
    02:00 +1°C° 0 mm 3 mps 759 mmHg 83%
    03:00 +2°C° 0 mm 3 mps 758 mmHg 85%
    04:00 +1°C° 0.2 mm 4 mps 757 mmHg 85%
    05:00 +2°C° 0.2 mm 5 mps 756 mmHg 85%
    06:00 +3°C° 0.2 mm 6 mps 755 mmHg 85%
    07:00 +3°C° 0.4 mm 6 mps 754 mmHg 85%
    08:00 +3°C° 0.4 mm 7 mps 753 mmHg 86%
    09:00 +4°C° 0.4 mm 7 mps 752 mmHg 86%
    10:00 +4°C° 0.5 mm 7 mps 751 mmHg 86%
    11:00 +4°C° 0.5 mm 6 mps 750 mmHg 86%
    12:00 +5°C° 0.5 mm 5 mps 750 mmHg 86%
    13:00 +5°C° 0.6 mm 4 mps 749 mmHg 84%
    14:00 +4°C° 0.6 mm 3 mps 748 mmHg 82%
    15:00 +4°C° 0.6 mm 2 mps 748 mmHg 81%
    16:00 +4°C° 0.1 mm 2 mps 747 mmHg 82%
    17:00 +4°C° 0.1 mm 2 mps 747 mmHg 82%
    18:00 +3°C° 0.1 mm 2 mps 747 mmHg 83%
    19:00 +3°C° 0 mm 2 mps 746 mmHg 84%
    20:00 +3°C° 0 mm 2 mps 746 mmHg 85%
    21:00 +3°C° 0 mm 2 mps 746 mmHg 86%
    22:00 +1°C° 0 mm 3 mps 745 mmHg 86%
    23:00 +1°C° 0 mm 3 mps 745 mmHg 87%
    Show more